GFSSE_sfc_wetblb_273.txt.gz
Wetbulb
70.07 72.19 73.75 75.16 76.00 76.21 76.05 76.09 76.09 76.84 77.08 77.31 77.87 77.83 77.99 78.27 78.68 78.43 78.24 77.63 77.51 77.85 77.60 77.75 77.80 77.74 77.52 77.42 77.39 77.36 77.47 77.26 77.18 76.96 76.87 76.14 76.13 76.88 76.56 76.76 76.09 74.61 76.08
70.70 72.14 74.92 76.12 76.29 76.03 76.21 75.91 76.45 76.60 77.37 77.63 78.36 78.84 79.05 78.72 77.67 77.96 78.41 78.41 77.72 77.78 77.61 77.48 77.61 77.12 77.16 77.32 77.14 77.04 76.75 76.98 77.08 76.92 76.93 76.51 76.50 76.40 76.64 75.16 74.94 74.30 75.46
70.53 73.21 74.76 76.93 76.35 75.81 76.32 76.40 76.42 77.20 77.70 77.78 78.15 78.61 78.32 78.27 77.91 77.96 78.07 77.67 78.03 77.66 77.47 77.24 77.40 76.57 76.12 76.39 76.72 76.61 76.31 76.09 76.89 77.35 76.62 74.43 74.60 76.41 76.30 75.76 74.80 74.95 75.39
72.44 72.34 73.61 76.73 76.78 76.25 76.34 77.23 77.03 77.18 77.64 78.20 77.92 77.75 78.05 78.59 78.60 78.36 77.43 77.62 78.08 77.90 77.16 76.61 76.36 76.95 75.68 75.02 75.16 75.24 75.49 75.27 75.82 77.08 72.98 72.19 73.04 75.62 75.86 75.52 75.66 75.51 75.35
71.67 72.85 73.46 76.29 76.33 76.41 76.58 77.49 77.31 77.55 77.98 78.39 78.27 77.98 78.11 78.22 78.92 77.52 77.43 77.90 77.82 77.74 76.80 76.22 75.44 74.30 74.08 74.00 74.09 74.17 73.92 75.16 77.31 73.99 71.45 71.48 73.24 74.87 75.82 76.10 75.25 75.24 74.93
72.00 73.22 75.64 75.73 76.13 76.79 77.26 78.31 77.37 78.07 77.86 78.12 78.45 78.22 78.78 78.23 77.95 77.93 77.86 78.03 78.18 77.60 77.02 76.36 75.35 74.03 73.11 73.25 73.26 73.28 74.44 77.52 75.42 70.93 70.91 72.24 70.48 75.35 75.60 75.60 75.27 75.22 74.99
72.04 73.05 73.99 76.93 77.34 77.02 76.37 77.54 77.42 78.54 78.37 77.95 78.22 78.42 78.10 77.55 77.79 78.13 77.64 77.75 77.88 77.92 77.29 76.93 75.97 74.30 73.06 72.77 72.28 72.71 74.91 76.99 73.04 73.20 73.39 72.58 72.79 75.34 74.24 73.94 74.57 75.30 74.71
72.14 72.84 73.47 75.93 76.69 76.73 77.11 77.31 77.79 78.37 77.79 78.26 77.86 78.12 77.58 77.14 77.41 77.85 77.47 77.45 77.45 77.40 77.55 76.89 76.54 75.41 73.57 72.85 72.91 74.16 74.86 76.66 72.70 71.57 71.39 71.65 74.98 75.50 75.70 75.72 75.28 74.25 73.61
72.19 71.64 72.30 73.28 73.84 75.83 76.94 77.27 77.86 77.35 77.78 78.30 77.87 78.24 77.73 76.87 76.90 77.25 77.70 77.68 77.04 77.07 77.04 76.82 76.63 76.49 75.61 75.25 75.22 74.73 74.77 73.77 65.07 66.78 68.33 68.56 73.85 73.55 73.90 74.29 74.35 74.43 74.57
71.64 71.67 71.36 71.91 71.94 73.01 74.46 76.80 77.25 77.75 77.61 77.69 78.12 77.93 76.88 76.39 76.86 77.15 77.66 77.90 77.35 76.97 76.91 76.44 76.58 77.42 77.88 77.55 77.38 76.94 75.84 72.47 64.46 65.55 67.11 68.86 72.62 70.93 71.44 71.80 72.36 72.59 72.76
71.41 71.12 71.91 72.05 72.15 72.37 73.90 72.91 77.94 77.75 78.00 77.56 77.49 77.52 77.48 74.01 73.53 75.21 76.77 77.21 77.16 77.17 77.72 78.27 78.44 78.23 78.01 78.45 78.44 78.61 76.99 65.70 65.38 65.93 67.16 73.06 72.71 71.10 70.55 70.23 70.19 70.14 69.97
69.77 70.71 71.61 71.74 71.52 73.09 74.14 73.73 74.38 74.97 75.24 74.96 75.19 75.16 74.71 74.11 73.99 74.44 75.46 78.36 78.49 79.14 79.39 79.22 79.21 78.97 78.76 74.68 74.60 78.35 75.10 66.21 66.03 66.47 68.40 73.33 73.02 71.45 71.23 70.91 70.74 70.41 69.94
70.53 71.15 70.66 71.72 72.60 72.00 72.67 73.47 74.09 74.30 74.23 74.41 74.35 73.32 74.55 74.71 72.52 71.50 71.32 73.18 73.54 76.15 74.82 76.16 77.00 76.26 74.86 74.06 74.27 74.34 70.50 67.45 66.80 67.00 70.59 73.92 73.78 72.33 72.02 71.64 71.31 71.12 70.77
70.79 71.75 72.85 72.88 72.56 71.47 72.15 73.26 73.50 73.61 74.06 74.31 74.48 74.99 74.16 72.87 70.38 70.69 70.75 72.03 73.43 73.54 73.61 73.01 72.41 73.67 73.31 73.79 73.52 70.46 69.42 69.68 68.49 67.80 70.47 74.39 74.51 73.69 72.98 72.40 72.02 71.70 71.31
70.24 71.98 72.09 72.22 72.37 71.79 72.29 73.29 73.40 73.63 74.26 73.44 73.74 74.16 73.23 72.33 72.63 73.01 71.46 72.12 71.97 73.70 72.93 71.27 72.21 73.95 72.82 72.12 71.94 70.49 70.39 70.42 69.84 69.36 69.57 74.52 75.11 74.95 74.46 73.50 72.95 72.57 72.21
70.32 71.39 72.23 71.62 72.49 73.95 72.85 73.70 72.90 73.93 74.66 73.28 73.59 72.90 73.61 72.85 71.78 71.22 70.52 71.97 73.19 72.68 72.16 72.79 72.29 73.55 74.67 72.38 71.25 71.85 70.88 71.31 70.98 70.35 70.48 72.70 75.69 75.57 75.71 74.98 74.38 74.06 73.65
70.12 71.69 71.28 71.67 72.81 72.10 72.42 72.04 73.13 73.74 74.69 73.26 72.71 72.56 73.47 72.50 72.23 73.64 72.80 71.40 72.24 70.52 72.27 73.20 73.55 74.07 73.61 72.41 70.91 71.58 71.40 71.53 71.93 71.63 71.12 71.57 73.82 76.36 76.20 76.47 76.47 76.27 75.93
70.96 70.90 71.86 72.98 72.56 71.73 71.48 72.27 73.13 73.26 72.07 73.41 72.96 72.91 73.91 73.77 72.89 73.61 72.99 71.11 71.88 72.02 73.31 72.77 72.50 72.16 70.55 71.15 70.42 71.25 71.70 72.01 71.93 72.19 72.19 72.11 72.25 72.87 75.76 76.82 76.75 76.96 77.08
70.76 70.60 70.08 71.08 71.29 71.24 73.39 71.49 72.87 72.17 72.92 73.77 73.10 72.40 73.75 73.61 73.42 72.94 74.58 73.28 71.16 70.89 72.20 72.98 73.47 71.90 71.36 72.67 72.01 71.14 70.85 71.78 71.54 73.91 72.59 72.37 72.60 72.82 72.59 75.55 76.70 76.71 77.33
71.13 70.79 70.80 71.03 71.19 70.86 73.09 72.05 72.11 72.71 72.09 73.00 72.58 72.63 73.26 73.05 73.76 73.34 74.47 74.00 71.61 72.24 74.14 72.73 74.06 72.71 72.82 72.28 73.79 72.25 71.83 71.07 71.67 71.39 71.00 72.55 72.12 72.09 73.34 73.09 74.50 75.40 77.42
71.44 70.93 70.63 70.33 71.39 71.89 70.61 70.58 70.54 69.96 69.71 70.16 71.40 73.34 73.62 73.79 73.75 73.87 74.03 73.90 70.68 70.92 72.92 73.30 72.46 72.61 72.99 73.36 69.77 69.84 71.01 70.74 69.56 69.31 70.42 69.90 71.65 71.93 73.30 73.36 73.22 74.14 75.37
70.14 70.63 70.98 71.77 72.07 72.38 70.98 70.40 71.26 70.59 70.10 70.23 71.86 73.40 73.80 74.18 72.95 73.40 73.62 73.46 72.52 70.21 72.19 71.38 72.74 72.05 73.21 73.01 68.16 68.57 66.78 68.92 69.99 70.18 69.15 71.03 69.79 69.84 70.64 72.48 74.17 73.36 72.38
69.79 70.17 71.45 71.87 72.23 71.92 72.02 70.81 71.24 71.75 72.07 71.09 71.99 73.19 73.69 73.86 73.89 72.97 72.65 73.30 74.35 73.66 71.72 71.75 72.57 72.25 71.06 72.30 72.20 68.51 66.30 65.32 67.24 70.57 70.15 70.31 69.76 69.29 70.04 69.07 69.04 69.53 72.33
69.86 71.16 71.50 72.46 72.66 72.41 71.84 71.27 70.40 70.07 69.15 70.28 72.23 73.58 74.05 73.29 73.56 74.20 72.92 74.15 74.21 73.71 70.96 72.70 74.26 72.99 72.97 69.52 70.91 72.95 70.94 69.41 65.45 63.74 68.51 70.20 70.82 71.62 70.78 71.45 69.56 68.79 68.08
69.83 70.88 71.75 72.58 72.92 72.33 72.06 72.69 71.23 70.41 70.48 70.94 71.41 72.40 71.81 73.33 73.57 73.44 73.52 73.22 74.08 73.33 72.44 73.74 73.81 73.36 73.31 71.50 72.06 71.65 71.42 71.99 70.63 67.40 65.59 67.41 69.43 69.91 69.68 68.58 69.25 69.36 68.97
69.56 70.73 71.98 72.38 72.87 72.62 72.12 72.45 72.63 71.16 71.26 70.80 71.17 70.15 72.74 72.60 73.90 73.19 73.47 72.70 75.06 73.39 72.62 71.77 73.83 72.30 72.53 73.26 72.85 72.14 69.82 67.79 66.69 68.68 67.79 66.83 66.61 68.14 68.92 67.65 67.27 69.20 68.21

GFSSE_sfc_wetblb_276.txt.gz
Wetbulb
68.70 71.25 74.58 76.09 76.10 76.29 75.94 76.21 76.67 77.16 77.46 77.73 77.85 78.00 78.33 77.87 77.80 77.71 77.83 77.93 77.80 77.73 77.51 77.45 77.65 77.34 77.51 77.35 77.22 77.25 76.83 76.91 76.74 76.52 76.26 76.34 76.24 76.20 76.54 75.97 75.82 74.10 75.70
70.00 71.99 75.21 76.52 76.17 75.78 75.89 76.40 76.99 77.89 77.50 77.54 78.00 78.32 77.80 78.34 77.70 77.61 77.81 77.64 77.62 77.37 77.52 77.60 77.39 77.52 77.02 77.20 77.03 76.93 76.96 77.03 76.91 76.62 76.57 76.24 75.94 75.93 75.92 75.93 76.02 74.55 75.36
70.58 73.10 74.86 77.12 76.34 76.24 76.21 76.50 77.42 78.25 78.00 78.01 78.39 78.09 77.88 78.32 77.53 77.62 77.65 77.41 77.33 77.32 77.41 76.37 76.14 76.21 76.72 76.65 76.53 76.34 75.96 76.34 76.41 76.14 76.36 74.02 74.05 76.06 75.15 74.74 75.48 75.67 75.22
72.05 72.87 74.30 77.16 76.79 76.51 76.55 77.13 77.64 78.24 77.93 78.09 77.96 77.99 78.02 78.04 78.10 77.52 77.66 77.71 77.22 76.40 76.15 76.66 76.83 75.26 75.55 75.90 75.96 76.20 75.77 75.53 75.68 75.58 71.75 72.15 73.30 75.47 75.68 75.35 74.98 74.56 74.41
71.80 72.96 74.02 76.49 77.08 76.72 76.71 77.63 77.84 78.13 77.91 77.93 77.85 77.90 77.89 78.00 77.66 77.19 77.64 77.39 76.59 75.96 75.51 74.68 74.43 74.32 74.32 74.29 74.73 74.51 74.65 76.61 76.62 73.65 72.30 72.36 71.86 74.83 75.75 75.48 75.23 74.70 74.64
71.95 73.18 75.98 76.91 76.76 76.77 76.84 77.46 78.14 78.45 78.37 78.53 78.38 78.17 77.90 77.35 77.35 77.55 77.38 77.49 76.67 76.18 75.60 74.31 73.43 73.41 73.65 74.10 74.07 73.96 74.54 75.65 73.89 70.90 71.41 72.90 72.20 75.83 75.45 75.23 75.38 74.91 74.39
71.49 73.08 74.01 77.31 77.83 78.04 77.31 78.12 78.04 78.09 78.03 78.49 78.38 78.06 77.76 77.75 77.70 77.39 77.45 77.81 77.46 77.02 76.42 75.01 73.41 73.04 73.41 73.48 73.17 73.76 77.52 75.18 72.31 71.77 71.32 70.66 71.26 74.57 74.16 75.24 75.48 74.66 74.27
72.03 73.42 74.49 77.06 77.93 77.38 77.47 78.61 77.92 78.05 78.26 78.48 78.10 77.56 77.37 77.54 77.44 77.25 77.29 77.32 77.26 77.30 76.81 76.05 74.65 73.27 72.41 72.61 72.38 74.43 76.99 75.82 73.29 71.86 71.64 72.33 75.17 75.58 74.61 74.30 73.89 73.67 73.80
72.59 72.52 72.74 74.30 74.68 77.13 77.90 78.38 78.49 78.09 78.07 77.63 78.01 77.14 76.82 76.98 77.03 77.15 77.25 77.26 76.91 76.74 76.79 76.49 75.78 75.15 73.90 73.41 74.03 75.65 76.30 74.23 68.19 68.86 70.92 70.30 75.04 74.56 74.82 74.70 75.05 74.58 74.26
71.49 71.51 71.58 71.22 71.98 73.17 74.72 77.93 78.01 78.16 77.85 77.67 77.89 77.37 76.37 76.51 76.67 76.89 77.54 78.13 76.54 76.15 76.15 76.04 76.18 76.36 77.03 76.48 76.11 75.98 74.34 70.99 62.83 64.86 66.52 68.04 73.29 72.74 73.19 73.24 73.36 73.44 73.85
70.00 70.53 70.82 70.62 71.64 71.92 72.95 75.11 77.83 77.74 77.37 78.03 77.37 77.07 76.53 72.22 73.07 75.10 76.06 76.68 76.71 76.60 77.18 78.01 78.51 78.49 78.09 77.75 77.47 77.09 72.89 63.47 63.98 65.68 66.54 72.76 72.63 71.07 71.35 71.33 71.35 71.64 71.90
68.02 69.89 70.53 70.74 71.13 72.18 72.74 71.96 74.13 75.01 74.98 74.56 75.10 74.71 73.77 72.72 72.63 74.68 75.75 78.16 77.98 78.67 79.16 79.55 79.45 79.45 78.88 74.13 73.46 77.67 69.20 64.08 64.37 65.39 67.19 73.12 72.94 71.18 70.77 70.45 70.13 69.80 69.68
68.92 70.20 70.44 70.72 71.34 70.85 70.87 72.03 73.21 73.57 74.11 73.80 73.82 73.76 73.35 74.18 73.15 73.57 70.85 70.76 72.41 74.83 74.99 76.17 76.97 76.06 75.08 74.19 73.31 72.78 71.37 64.62 64.45 65.99 69.17 73.60 73.39 72.10 71.88 71.55 71.24 70.95 70.43
69.13 69.89 70.19 70.49 71.39 70.38 71.65 72.16 72.70 73.13 73.36 73.31 73.30 72.45 71.58 72.16 70.03 69.21 69.16 70.14 71.38 72.70 72.11 72.51 72.68 74.63 73.76 73.45 72.86 73.11 67.32 66.19 65.50 66.02 68.65 73.49 74.28 73.46 72.89 72.52 72.16 71.97 71.73
68.93 69.59 69.76 70.95 71.03 69.92 70.45 71.94 71.99 72.63 73.17 73.46 73.06 72.65 72.43 72.03 70.28 70.21 70.38 70.53 71.11 72.12 71.28 70.09 70.69 72.60 72.10 71.46 72.16 72.18 67.75 67.53 66.74 67.07 67.95 73.94 74.40 74.85 73.93 73.65 73.20 72.90 72.54
70.13 69.91 71.11 71.38 71.15 70.02 70.69 71.86 72.26 72.62 73.69 72.78 72.44 72.50 72.55 72.08 70.92 70.73 69.49 70.01 70.77 70.64 70.80 70.97 72.03 72.10 72.15 72.49 69.10 69.30 68.73 69.15 68.20 67.58 68.63 71.61 75.62 75.44 75.34 74.85 74.25 73.82 73.61
70.67 71.80 71.11 71.43 71.61 71.99 71.85 71.84 72.58 73.06 74.47 72.50 72.03 71.51 72.77 71.55 71.24 71.96 71.95 71.37 70.07 69.28 70.93 72.20 72.24 72.93 72.48 72.63 70.53 71.25 69.90 69.88 69.77 69.10 69.12 70.26 73.13 75.92 75.85 76.17 76.16 75.78 75.22
70.49 70.32 71.28 72.99 72.32 71.05 71.33 70.99 71.99 72.82 73.34 72.74 71.73 71.46 72.58 72.60 71.64 71.34 72.38 70.10 71.19 70.10 71.04 71.24 71.53 70.78 69.42 70.45 70.31 70.10 70.53 69.99 70.38 70.31 69.93 70.36 71.33 72.81 75.30 76.38 76.41 76.41 76.60
70.33 69.97 70.38 70.90 70.83 70.19 70.35 71.02 71.61 71.49 71.71 72.31 71.24 71.06 72.41 72.48 73.05 70.85 72.75 73.12 71.54 69.14 70.76 71.77 72.12 70.63 69.72 70.70 71.77 69.96 69.96 69.89 70.32 71.99 71.16 70.62 70.41 71.54 71.56 74.60 76.59 76.57 77.16
70.41 70.30 70.29 71.07 70.20 70.63 70.92 69.36 71.05 71.86 72.00 72.54 71.54 70.77 72.64 71.85 73.16 71.84 72.50 72.97 71.15 70.15 72.62 71.19 71.01 71.54 71.91 71.83 73.12 70.99 70.34 70.68 70.30 70.59 70.47 71.71 71.33 71.87 71.21 71.33 72.75 75.03 77.10
70.20 69.62 68.60 69.71 68.72 70.23 70.07 69.10 68.76 69.29 68.84 70.61 71.15 71.48 71.97 71.89 72.22 72.08 72.30 72.13 71.71 68.78 71.54 71.95 71.37 71.05 70.75 72.43 68.52 67.61 68.55 69.58 68.37 68.77 69.34 69.48 70.25 70.91 71.11 72.02 72.01 73.07 73.78
69.12 69.08 68.53 69.71 69.06 69.87 69.81 69.47 70.31 69.69 68.94 68.97 70.24 71.54 71.97 72.33 72.07 72.62 72.43 71.79 72.30 69.62 70.83 70.18 70.09 70.30 71.04 71.61 67.19 66.84 65.86 68.46 69.21 69.92 67.70 69.10 68.64 68.82 70.30 72.19 72.33 72.46 72.62
69.01 68.79 69.08 70.06 70.02 70.15 69.19 69.36 69.85 70.37 69.79 68.76 69.94 70.70 71.86 72.64 72.83 71.58 72.69 71.98 71.63 72.18 71.08 69.89 69.85 70.81 69.03 70.72 71.00 66.69 64.33 63.72 65.27 68.06 68.98 69.95 69.33 68.76 70.02 69.48 69.88 69.07 69.15
69.33 70.25 69.87 70.81 70.58 71.15 70.14 68.60 68.42 68.17 67.59 69.02 68.93 71.11 72.28 72.63 72.86 71.82 71.26 71.73 71.47 71.57 71.10 70.54 71.65 70.97 71.62 69.77 69.40 71.63 69.44 67.43 63.47 61.99 67.44 69.08 70.20 70.37 69.78 69.29 68.48 68.97 68.28
69.88 70.14 70.30 71.34 70.56 71.44 71.14 69.89 68.72 68.04 68.83 69.38 69.75 71.01 71.70 72.18 72.44 73.40 71.76 71.24 72.39 72.08 71.62 71.51 71.94 72.65 72.66 71.01 69.80 70.68 69.44 70.37 69.28 65.56 64.37 66.84 69.55 68.81 68.86 67.94 66.47 67.48 68.91
70.00 70.13 70.56 71.19 70.68 70.77 71.19 71.27 69.94 69.36 69.62 69.47 69.41 69.38 70.78 71.56 71.95 71.79 72.68 71.19 71.61 72.63 71.35 70.65 71.06 72.36 70.95 71.57 71.73 71.36 68.28 66.28 65.75 67.01 66.09 65.91 65.00 67.29 68.33 67.01 66.63 67.84 69.12

GFSSE_sfc_wetblb_282.txt.gz
Wetbulb
67.68 70.49 74.35 75.31 76.03 76.57 76.92 77.27 77.38 77.62 77.79 77.80 78.08 78.17 77.80 77.80 77.47 77.55 77.73 77.12 77.45 77.83 77.43 77.32 77.27 76.76 76.54 76.43 77.03 76.29 76.52 76.22 76.14 76.36 76.57 76.38 76.33 76.19 75.86 75.70 75.68 74.54 75.53
68.74 70.88 74.09 75.48 75.86 76.48 76.85 77.19 77.59 77.59 77.87 77.35 77.55 77.75 77.38 77.51 77.85 77.84 77.55 77.77 77.71 77.60 77.57 77.40 77.11 77.48 76.96 76.72 76.92 76.70 76.69 76.56 76.36 76.19 76.36 76.44 76.14 76.20 76.07 75.80 75.65 75.11 75.54
69.22 71.46 74.32 76.20 76.06 76.41 76.95 77.46 77.44 77.75 77.35 77.54 77.94 77.69 77.57 77.72 77.29 77.26 76.99 77.02 76.83 76.36 76.85 76.85 76.79 76.60 76.49 76.35 76.64 76.46 76.28 76.22 76.19 75.98 76.06 74.08 73.63 75.05 75.14 75.02 74.96 75.02 75.23
69.98 71.34 74.23 76.26 76.61 76.64 76.95 77.36 77.58 77.57 77.67 77.80 77.54 77.41 77.39 77.69 77.35 77.05 76.64 76.33 76.87 77.19 75.90 76.30 76.60 76.33 76.24 75.93 75.82 75.82 76.04 75.81 75.69 75.18 73.41 73.75 73.96 74.62 74.66 75.32 75.26 74.94 74.33
71.00 72.65 74.09 75.88 76.25 76.82 77.09 77.78 78.00 77.72 77.86 77.75 77.49 77.29 77.26 77.06 77.25 76.37 75.51 75.29 75.04 75.29 75.85 75.59 76.05 75.89 75.58 75.30 74.98 74.73 74.42 75.10 74.80 73.34 72.85 73.43 74.05 74.78 74.85 74.87 74.61 74.19 74.64
71.94 73.34 75.31 76.12 76.15 76.71 77.35 77.70 77.66 77.55 77.70 77.57 77.26 77.04 76.79 76.77 76.45 75.93 75.65 75.13 74.71 73.99 73.65 74.04 74.88 74.79 74.77 73.94 73.49 73.61 75.20 76.10 74.56 73.35 73.77 74.55 74.53 75.27 75.20 75.18 74.21 74.17 74.24
71.48 72.74 74.21 76.94 76.50 76.77 77.58 77.51 77.72 77.79 77.83 77.50 77.04 76.85 76.87 76.87 76.88 77.66 76.85 76.25 75.01 74.07 73.39 73.29 73.68 74.09 74.01 73.27 74.10 75.56 75.70 75.13 72.03 72.04 72.25 73.08 74.28 75.31 74.24 75.14 74.72 73.91 73.91
71.79 73.01 73.92 76.75 76.81 76.68 77.66 77.62 77.63 77.68 77.81 77.26 77.04 76.96 76.95 77.03 77.27 77.25 77.10 76.62 75.61 75.04 74.29 74.06 73.92 73.67 73.43 73.22 74.71 75.68 75.07 73.90 71.87 71.40 71.37 71.99 73.92 73.76 74.01 74.83 74.39 73.57 73.34
72.80 72.67 73.69 74.73 75.57 76.83 77.51 77.80 77.75 77.92 77.47 77.08 76.66 76.68 76.95 77.12 77.15 76.99 76.80 76.70 76.32 75.95 75.57 75.35 75.21 74.99 74.79 74.40 74.79 75.65 75.29 74.72 71.84 72.41 72.65 73.22 74.75 73.47 73.17 73.04 73.15 73.12 73.00
72.24 72.84 73.20 73.48 73.70 74.97 75.86 77.75 77.79 77.71 77.18 76.94 76.16 75.89 76.46 76.64 76.96 76.91 76.72 77.24 76.47 76.34 75.85 75.45 74.89 75.37 76.00 75.72 75.59 76.18 73.93 73.61 71.27 71.37 71.32 71.96 73.94 74.21 73.88 74.03 74.30 73.96 73.85
71.07 71.23 71.71 71.35 72.49 73.94 75.82 76.74 77.71 76.82 76.50 76.59 75.87 75.65 74.50 73.05 73.10 73.84 76.41 77.51 77.10 77.10 76.85 76.74 77.03 77.68 77.58 76.28 75.73 73.32 71.70 66.61 66.34 66.99 67.78 70.00 72.83 73.46 73.80 73.28 73.24 73.40 73.42
69.01 69.86 70.48 71.06 72.14 72.89 74.68 74.93 74.63 75.02 74.74 74.44 74.28 74.04 73.14 72.73 74.43 76.00 76.48 76.29 76.47 77.36 78.33 79.25 78.60 78.53 77.97 75.86 73.60 75.20 70.96 65.47 64.69 65.11 66.22 69.32 71.73 72.06 72.15 72.22 72.21 71.97 72.02
68.96 69.83 69.87 70.79 71.56 71.89 70.73 73.34 73.27 73.74 73.86 73.48 73.57 73.59 73.19 73.45 73.94 73.52 73.24 71.05 70.76 72.92 73.24 74.22 75.19 76.23 76.09 75.46 74.57 73.44 74.46 68.91 64.79 65.24 66.54 69.70 71.71 72.07 71.90 71.63 71.25 70.92 70.78
68.16 69.15 69.71 70.70 70.79 70.61 69.43 72.00 72.64 73.20 73.44 72.67 73.24 73.52 72.76 72.02 72.50 71.41 70.17 70.22 71.27 72.36 72.91 73.84 73.73 74.25 75.08 75.12 74.69 73.79 73.07 68.78 65.95 65.85 66.58 70.10 72.64 72.83 72.89 72.64 72.20 72.04 71.71
67.48 68.61 69.39 70.23 69.90 69.94 70.30 70.54 71.93 72.60 73.02 72.93 73.31 73.45 73.23 72.35 70.99 71.65 71.83 71.32 71.08 72.04 72.38 72.70 72.66 73.13 73.77 73.97 74.35 73.88 73.43 71.76 67.19 66.74 66.74 69.83 72.99 73.91 73.80 73.87 73.73 73.36 73.17
67.42 68.21 69.23 69.47 70.15 69.62 69.78 69.92 70.87 71.64 72.77 73.26 73.18 73.06 73.10 72.34 72.11 71.46 70.58 70.88 71.86 71.45 71.16 72.33 72.73 73.34 73.36 73.33 73.46 73.16 73.64 72.65 69.37 67.80 67.53 68.05 71.69 75.52 74.64 74.63 74.93 74.96 74.57
67.72 68.50 68.92 68.99 70.27 69.12 69.51 69.83 70.80 71.27 72.58 72.67 72.88 73.03 72.83 73.15 73.05 72.98 72.42 72.40 71.72 72.58 71.86 72.04 73.49 73.23 72.21 73.19 72.25 71.37 72.51 72.40 70.65 69.21 68.81 68.89 69.62 73.19 76.54 75.74 76.02 76.56 76.28
68.22 67.63 68.61 70.37 70.24 69.04 69.19 69.81 71.06 71.97 72.35 72.82 73.04 72.86 72.78 73.05 72.24 72.73 72.85 73.05 73.67 72.51 71.05 72.14 73.47 72.93 72.30 72.79 72.79 73.19 71.92 70.73 70.95 70.68 70.13 69.83 70.16 70.61 73.07 76.69 76.39 76.52 76.54
68.57 67.92 67.98 69.57 69.69 69.53 69.73 70.60 71.22 72.24 72.55 73.08 73.06 72.40 72.08 72.55 73.12 72.28 72.28 72.85 73.92 72.53 71.54 73.15 73.37 72.75 72.65 73.11 73.70 74.80 72.97 72.40 71.94 71.04 71.33 71.21 70.84 71.55 72.07 73.46 75.82 76.40 76.66
69.25 69.13 69.02 69.93 70.25 70.44 70.60 70.68 71.27 71.51 72.14 72.78 72.94 72.33 72.01 71.96 72.85 72.48 71.91 72.56 73.75 72.98 71.64 71.74 72.70 72.82 73.16 72.82 72.59 72.00 71.45 71.62 72.43 71.71 71.66 71.98 71.84 71.88 72.12 72.76 73.02 73.76 76.16
69.43 69.41 69.49 69.28 69.85 69.67 69.17 68.91 69.70 70.14 70.83 71.42 72.31 72.90 72.36 71.69 72.50 72.49 72.32 72.01 73.15 73.23 72.36 71.82 72.26 72.35 72.40 73.20 71.20 71.41 71.67 71.92 71.58 71.19 71.63 71.69 72.18 72.64 73.16 73.12 73.01 73.06 73.53
68.74 69.17 68.89 69.74 69.51 69.79 70.17 69.36 69.67 70.05 70.23 71.09 72.01 72.31 72.53 72.24 72.41 72.06 72.06 71.82 72.16 72.70 73.20 72.55 71.88 71.09 71.35 72.31 70.83 68.22 66.95 70.17 71.52 71.10 71.74 71.88 70.69 71.45 71.98 72.84 73.41 74.35 74.23
67.94 68.43 68.80 69.42 69.72 70.19 70.23 69.86 70.21 70.19 70.13 69.38 69.87 70.37 71.59 72.33 72.53 72.40 72.05 72.17 72.16 72.43 72.18 72.82 72.09 71.26 70.35 71.79 72.75 71.44 67.92 65.82 66.98 69.91 70.67 71.90 73.22 72.73 72.80 73.16 73.16 72.66 72.82
68.07 69.11 69.18 69.28 69.13 69.63 70.03 69.40 69.07 68.40 67.64 68.85 69.36 70.67 70.95 71.91 72.21 72.56 72.50 72.03 72.08 72.04 71.82 72.05 72.60 72.14 71.58 70.61 72.03 71.99 71.69 70.39 68.11 67.34 70.82 71.82 73.06 72.72 72.72 72.69 72.28 71.55 72.27
68.61 68.28 68.68 68.73 69.14 69.59 69.32 69.90 68.88 68.23 68.69 69.56 69.84 70.14 70.76 71.59 72.33 72.53 72.70 72.29 71.61 71.37 71.57 71.60 72.19 72.13 71.75 71.51 70.95 71.66 71.53 70.98 70.24 67.82 67.63 69.85 71.67 72.64 72.86 72.59 71.37 70.40 71.66
69.11 68.88 69.08 68.69 68.87 69.64 70.01 69.80 69.00 68.52 68.46 68.40 68.73 68.62 69.45 70.61 71.67 72.36 72.70 72.55 72.26 71.82 71.71 71.95 72.18 72.27 72.30 72.86 72.60 72.34 71.82 70.12 68.85 68.77 67.96 68.72 68.30 70.29 71.37 72.53 71.58 71.41 72.84

GFSSE_sfc_wetblb_285.txt.gz
Wetbulb
71.92 74.58 74.93 75.77 76.74 77.32 77.35 77.13 77.60 77.72 77.81 77.92 78.25 78.29 78.04 77.70 77.81 77.62 77.68 77.18 77.55 77.86 77.42 77.32 76.94 76.80 77.16 77.35 76.74 76.66 76.38 76.79 76.72 76.35 76.65 76.27 76.18 76.18 76.13 76.16 75.78 74.88 75.33
73.07 74.86 74.74 76.18 76.69 77.17 77.25 77.71 77.77 77.56 77.87 77.73 78.19 77.69 77.80 77.31 77.60 77.61 77.18 77.52 77.70 77.35 77.35 77.55 77.47 77.10 77.02 76.77 76.91 76.89 77.13 76.60 76.49 76.23 76.30 76.43 76.23 76.10 75.53 75.78 75.52 75.73 75.68
73.18 75.14 75.43 77.15 76.64 76.85 77.35 77.80 77.72 77.42 77.54 77.59 77.83 77.69 77.08 77.95 77.72 77.19 77.47 76.43 76.68 76.98 77.10 76.82 76.77 76.66 76.86 76.94 76.76 76.28 76.56 76.33 76.28 76.32 75.19 74.80 74.89 75.62 75.57 75.48 75.65 75.74 75.83
73.95 75.33 75.67 76.74 76.90 77.46 77.48 77.40 78.17 77.59 77.43 77.80 77.62 76.80 77.15 77.12 77.23 76.52 76.57 77.08 77.32 76.24 76.88 76.82 76.82 76.57 76.39 76.33 76.47 76.41 76.14 75.74 75.65 75.01 75.03 74.59 74.04 75.17 75.76 75.42 75.02 74.53 74.33
74.29 75.37 75.88 76.41 76.99 77.23 77.56 78.09 78.05 77.88 78.01 77.78 76.94 76.93 76.95 76.55 76.33 75.36 75.33 75.31 75.58 76.12 76.32 76.57 76.40 76.32 76.01 75.27 75.07 74.93 74.91 75.41 74.36 73.49 74.84 75.34 75.31 74.99 74.92 74.75 74.59 75.06 74.66
74.18 75.44 76.02 76.43 76.74 77.21 77.88 77.72 77.84 78.15 77.51 77.76 76.95 76.85 76.82 76.79 76.16 75.89 75.30 75.06 74.53 74.42 74.78 75.55 75.55 75.25 74.58 73.80 73.61 74.61 76.39 76.04 73.62 74.62 75.04 75.46 75.66 75.38 75.26 74.67 74.40 74.75 74.06
74.13 75.59 76.08 77.34 76.71 77.39 77.59 77.84 77.96 77.91 77.85 77.27 76.92 76.87 76.94 77.17 77.70 77.01 76.19 75.33 74.75 74.08 73.96 74.38 74.91 74.41 73.85 74.16 76.56 75.29 76.14 74.90 74.43 74.32 75.32 76.00 76.20 74.81 74.96 74.85 74.61 74.14 74.63
73.38 75.16 75.93 76.69 76.59 77.19 77.67 77.76 78.00 78.05 77.57 77.27 77.18 77.23 77.31 77.44 77.32 76.97 76.60 76.02 75.61 74.95 74.64 74.77 74.41 74.23 74.39 74.75 76.05 75.41 75.01 73.59 72.71 72.11 73.49 75.18 74.06 73.53 74.82 74.52 74.48 73.73 73.54
73.74 74.82 76.09 76.40 76.60 76.74 77.56 77.51 77.36 77.92 77.51 77.00 77.03 77.16 77.18 77.19 77.14 76.98 77.13 76.62 76.05 75.69 75.50 75.22 74.94 74.85 74.94 75.17 75.55 75.73 75.38 74.70 73.31 73.99 73.35 74.57 74.05 73.26 72.90 73.36 73.09 73.03 73.21
73.76 74.28 75.61 76.69 76.24 76.76 77.56 77.60 77.98 77.97 77.40 76.74 76.29 76.54 76.68 76.68 76.89 76.79 75.90 77.76 76.66 76.03 74.84 74.22 74.29 74.79 75.25 75.53 75.06 75.96 74.00 73.96 72.20 73.86 74.31 73.68 74.15 74.26 73.89 74.04 73.97 73.15 73.30
73.24 74.41 75.42 75.51 74.96 77.19 77.22 77.54 77.42 77.00 76.91 77.10 76.41 76.14 75.36 75.60 76.01 76.61 77.44 77.64 77.36 77.48 77.11 76.58 76.36 76.28 76.11 75.41 75.41 73.55 71.94 70.29 69.77 70.76 70.76 70.48 71.96 73.22 73.64 73.55 73.39 73.93 73.79
71.10 72.84 75.14 74.82 73.57 76.69 76.28 78.10 77.34 77.38 77.46 77.33 77.00 76.83 75.88 76.60 76.86 76.31 76.46 75.00 74.55 74.95 75.44 76.74 78.14 78.50 77.72 77.08 76.67 75.77 75.61 74.19 70.20 69.02 68.98 67.88 70.59 71.72 72.57 72.55 72.88 72.74 72.71
71.49 72.55 73.89 74.35 73.11 74.01 76.21 76.55 76.69 77.01 77.20 76.72 77.36 77.36 77.07 76.74 76.71 75.65 75.59 75.14 76.23 76.21 77.28 78.00 78.53 78.08 77.33 77.36 77.61 77.05 76.65 75.99 73.52 70.16 71.55 68.63 70.61 71.26 72.47 72.19 71.89 71.70 71.62
71.92 72.19 73.37 72.90 74.10 74.69 75.46 75.34 76.35 76.35 76.82 76.68 77.11 77.70 77.55 76.42 76.35 76.19 76.01 75.82 76.29 76.16 76.61 76.95 76.88 77.60 77.90 78.19 77.79 77.15 76.95 75.74 73.95 71.56 73.02 69.35 71.02 72.05 73.00 73.42 73.04 72.43 72.35
71.50 72.59 72.79 72.58 74.44 74.56 74.30 75.29 76.16 76.35 76.85 77.33 77.70 77.93 77.37 76.63 76.69 76.32 75.50 75.85 76.21 75.97 75.97 76.34 76.73 77.18 77.75 77.54 77.86 77.52 77.10 76.88 75.17 72.50 72.40 70.21 71.45 73.17 73.48 74.27 74.48 74.11 73.98
70.95 71.88 72.94 73.44 74.01 74.24 74.03 74.62 75.52 76.50 77.17 77.69 78.00 78.04 76.95 76.80 77.41 76.42 76.07 76.27 76.51 77.02 76.09 76.02 77.14 77.09 76.92 77.31 77.23 76.46 76.74 77.21 77.35 75.89 73.37 73.34 72.30 73.45 75.01 74.61 75.12 75.60 75.63
70.50 71.72 72.32 72.92 73.50 73.59 73.89 74.20 74.36 75.55 76.45 77.04 77.58 78.19 77.45 77.28 77.37 77.16 76.22 76.06 76.63 77.56 76.83 77.24 77.85 77.53 76.80 77.01 77.08 77.10 76.41 76.35 76.80 77.01 75.39 73.85 74.05 72.83 74.27 76.38 76.25 76.28 76.16
70.40 71.10 72.08 71.98 72.43 73.00 73.47 73.93 73.93 74.90 75.79 76.50 76.99 77.33 77.24 77.17 77.02 76.68 75.70 75.83 77.15 77.25 76.50 76.55 76.75 75.96 76.07 76.17 76.91 77.33 77.77 77.18 76.43 76.17 76.21 75.34 74.61 74.55 75.48 74.52 76.93 77.01 76.59
71.10 71.37 71.55 72.39 72.36 73.05 73.70 73.54 74.39 74.76 75.59 76.50 76.96 76.64 77.32 76.89 76.69 76.87 75.88 75.78 77.39 76.66 76.60 75.75 75.97 76.52 75.72 75.59 75.26 76.19 77.13 76.71 76.57 76.02 76.38 76.25 76.24 75.46 75.61 76.42 75.49 76.35 76.99
71.71 72.13 72.26 72.40 73.12 74.05 73.67 73.92 74.02 74.29 75.17 76.28 76.70 76.87 77.24 76.70 76.61 76.64 76.20 76.28 76.38 75.82 75.84 76.45 76.32 76.48 75.96 75.25 74.42 74.77 76.55 76.31 76.52 76.65 76.62 76.53 76.64 76.65 76.57 76.94 76.97 76.97 76.70
72.18 72.16 72.02 72.11 73.58 73.76 72.83 72.19 73.09 73.25 74.71 75.74 76.64 77.47 77.58 77.48 76.60 76.46 75.40 75.75 76.26 75.65 76.46 77.12 75.87 75.38 74.40 75.71 73.89 73.30 74.44 76.02 75.96 75.78 76.48 76.31 75.79 76.07 76.76 76.84 77.14 77.15 76.60
72.29 72.67 72.77 72.68 73.77 73.88 73.72 74.08 74.39 75.02 75.27 75.78 76.48 76.96 77.51 77.40 77.05 76.43 76.54 75.70 76.09 75.00 76.39 76.99 76.61 74.43 74.13 75.38 72.50 72.11 69.51 71.80 75.77 75.16 75.96 76.38 76.73 76.53 76.52 76.56 77.03 76.98 76.28
71.65 72.78 73.14 73.64 74.30 74.49 75.11 74.56 74.50 74.88 74.59 74.10 74.79 75.22 76.20 77.10 77.11 76.92 76.67 76.48 76.39 76.24 74.26 76.27 76.48 75.69 73.02 74.61 76.00 72.65 68.21 67.82 72.12 75.68 74.82 76.25 77.14 76.21 76.48 76.47 76.71 76.89 76.29
71.28 73.05 73.78 74.34 74.54 74.83 75.43 74.71 74.72 73.24 72.46 73.62 74.72 75.09 75.87 76.50 76.64 76.87 76.85 76.71 76.58 75.98 75.74 75.23 75.50 75.89 75.60 72.97 74.50 75.67 76.47 74.93 70.14 69.70 74.23 75.35 77.03 76.05 76.38 76.15 76.15 76.42 76.76
70.96 72.09 73.10 74.09 74.46 74.59 74.27 75.04 74.25 73.97 73.74 74.04 73.75 74.53 75.53 76.41 76.35 75.93 76.25 76.56 76.56 76.07 76.35 76.41 76.22 75.75 74.51 73.88 73.40 73.49 74.78 74.36 75.09 72.01 69.30 71.99 74.53 75.00 75.46 75.34 75.04 74.28 75.32
70.81 70.63 72.45 72.46 72.36 73.19 72.96 73.64 73.24 73.26 73.38 72.90 73.55 73.09 73.19 73.90 74.72 76.21 76.38 76.69 76.97 76.71 76.47 76.54 76.72 76.53 75.88 75.10 74.52 75.08 73.79 71.99 71.20 71.83 71.08 71.72 72.05 73.86 75.12 75.50 75.13 75.04 76.32

GFSSE_sfc_wetblb_291.txt.gz
Wetbulb
73.31 75.51 76.62 77.37 76.71 76.82 77.30 77.27 77.53 77.28 77.28 77.14 77.72 77.50 77.56 77.38 77.39 77.89 77.63 77.80 77.64 77.72 77.68 77.13 77.07 77.28 76.83 76.86 76.86 77.05 76.88 76.86 76.39 76.99 76.82 76.64 76.38 76.02 75.93 75.25 76.18 75.05 75.74
74.23 76.23 76.84 77.07 77.42 77.41 77.57 77.18 76.69 77.01 77.13 77.21 77.07 77.13 77.01 77.24 77.47 77.58 77.58 77.51 77.49 77.22 77.23 77.28 77.25 77.33 77.08 76.72 76.82 76.74 76.57 76.59 76.42 76.76 76.37 76.26 75.92 75.96 75.90 76.37 77.01 75.06 75.75
74.23 76.33 76.92 77.29 77.85 77.55 77.69 77.54 77.02 77.13 76.86 77.44 77.13 76.94 77.44 77.41 77.14 77.17 77.50 77.64 77.31 77.26 77.43 77.24 77.17 77.17 76.97 76.81 76.67 76.99 76.82 76.07 75.99 76.67 77.13 74.32 75.61 75.89 76.25 76.17 75.90 75.90 75.42
74.67 75.93 76.79 77.21 77.48 77.80 77.91 77.42 77.78 77.38 77.36 77.32 77.16 77.03 76.98 76.93 77.03 77.17 76.92 77.53 77.36 77.28 77.15 77.20 76.92 76.83 76.86 76.71 76.71 75.62 75.37 74.27 75.04 76.09 75.55 74.14 75.01 75.47 75.20 74.84 75.21 75.57 75.41
75.77 76.72 77.47 77.61 77.95 77.77 77.34 77.67 77.28 77.51 77.49 77.19 76.59 76.04 75.84 75.76 76.12 76.42 76.84 77.19 77.30 77.29 77.07 76.62 75.70 75.28 75.09 75.46 76.01 76.14 74.74 73.70 75.26 76.09 76.05 75.14 73.92 74.85 75.17 75.36 75.09 74.53 74.86
75.24 77.01 77.60 77.99 77.91 77.66 77.30 77.62 77.06 77.37 77.76 77.33 77.22 76.71 76.40 76.21 75.62 75.68 75.62 76.20 76.81 76.65 76.35 75.70 74.92 74.70 75.90 75.34 76.53 76.52 75.56 75.51 75.79 75.09 74.65 75.15 75.44 75.49 74.85 74.68 74.79 74.67 75.28
74.54 76.60 77.29 77.80 78.03 77.47 77.58 77.10 77.25 77.88 77.55 77.25 77.22 77.07 77.52 76.48 75.90 75.62 75.37 75.51 75.57 75.59 75.73 75.07 74.50 75.24 76.54 76.39 76.29 76.17 75.23 75.09 74.51 75.07 75.38 74.60 74.80 75.92 75.57 74.91 74.74 75.10 74.40
74.34 75.79 76.82 78.12 78.00 77.22 77.53 77.23 78.19 77.41 77.46 77.38 77.34 77.01 76.84 76.68 76.40 76.12 75.79 75.65 75.31 75.25 74.97 74.83 74.56 75.03 76.23 76.09 75.51 74.32 74.10 75.14 74.35 73.69 73.87 72.81 74.36 75.49 75.30 75.10 73.95 73.92 74.42
75.07 75.20 76.02 77.41 77.54 77.45 77.75 77.87 77.52 77.32 77.22 77.30 77.33 77.53 77.34 77.01 76.82 76.57 76.34 76.09 75.67 75.47 74.95 74.22 73.91 74.50 74.99 76.09 75.64 74.85 73.95 74.49 73.63 73.28 73.68 72.43 74.41 74.13 74.50 73.52 73.27 73.44 73.48
75.05 74.98 75.00 76.76 76.13 76.99 77.73 78.16 77.78 77.25 76.76 76.90 76.70 76.78 77.46 77.71 77.74 76.98 77.95 76.99 75.58 74.75 74.37 74.04 74.18 74.47 75.01 75.51 75.87 74.61 74.38 75.25 72.84 72.98 72.58 73.43 75.18 74.65 74.48 74.53 73.87 73.41 73.34
74.59 75.22 74.83 76.65 74.48 77.45 77.44 77.39 77.35 77.18 77.07 76.84 75.96 76.70 77.49 77.85 77.95 77.48 76.42 76.67 77.12 77.56 77.57 77.10 77.18 77.05 76.53 75.98 76.95 76.21 75.47 72.04 71.40 71.42 70.88 74.30 73.44 73.22 73.91 73.30 73.13 73.61 73.33
73.66 74.25 74.25 73.79 74.32 77.23 75.32 77.32 76.38 75.76 77.78 78.47 78.56 78.68 76.29 77.02 77.05 76.90 77.80 76.72 77.02 77.34 77.76 78.72 79.22 79.51 78.74 77.76 76.99 76.96 76.46 73.90 72.48 71.79 69.75 72.92 71.56 72.04 72.78 72.75 72.94 72.75 72.70
73.62 74.78 73.57 73.57 75.23 75.13 75.14 74.43 75.42 76.02 77.06 78.08 79.10 79.15 78.56 77.19 78.32 77.04 77.27 77.87 78.10 78.94 78.60 78.32 79.20 78.64 77.23 77.23 76.51 76.09 76.60 75.47 74.41 73.94 71.87 72.78 71.99 72.25 72.88 72.94 72.58 72.59 72.42
72.84 74.15 73.82 74.99 76.48 75.98 75.35 74.49 74.74 75.17 76.02 75.40 78.08 79.05 78.30 76.84 76.81 76.73 76.75 76.81 77.32 77.04 77.65 77.62 77.23 78.12 77.47 77.90 77.53 77.19 76.61 75.72 74.78 75.47 73.23 73.96 73.49 73.41 73.69 74.13 73.88 73.55 73.19
72.16 73.83 75.16 75.74 76.21 76.83 76.50 76.06 75.51 75.49 75.93 77.14 77.37 78.56 77.53 76.83 77.76 77.17 77.01 76.52 76.89 76.76 76.84 77.55 77.74 78.01 78.02 77.24 77.19 76.90 76.15 76.15 76.71 76.54 76.01 75.61 74.84 74.76 74.81 75.01 75.35 75.32 74.91
72.92 73.77 75.93 73.44 76.74 76.41 77.08 77.37 75.72 75.74 77.18 76.97 76.38 77.80 78.15 78.23 78.75 77.63 76.85 76.10 76.38 77.18 77.36 77.92 78.56 77.36 77.05 76.52 77.09 77.43 77.09 76.96 76.84 77.46 77.00 75.89 75.90 75.50 76.01 76.14 76.35 76.37 76.42
73.67 74.49 74.18 73.82 75.98 76.39 77.03 77.49 76.82 75.01 74.87 75.41 76.48 78.49 78.45 78.75 78.99 79.37 76.53 76.05 76.58 77.98 78.18 78.47 79.16 77.88 76.28 76.48 76.59 77.26 76.68 77.34 76.82 77.39 77.29 77.31 76.68 76.26 76.13 76.47 76.92 77.20 77.38
73.64 74.29 74.86 75.04 75.06 75.75 76.74 77.42 76.59 76.57 76.06 74.59 75.22 76.30 78.03 78.10 78.27 79.10 75.58 75.64 78.08 77.35 76.12 76.28 76.33 76.20 76.54 76.30 75.65 75.61 75.77 76.26 76.77 77.24 77.46 77.51 77.13 77.05 76.54 76.84 76.68 77.09 77.75
74.45 75.33 74.25 75.37 74.24 75.27 77.26 76.98 77.06 77.90 76.71 75.95 74.69 74.85 78.27 77.02 76.49 77.29 75.14 76.02 78.43 76.13 75.24 75.73 76.47 77.12 76.07 76.06 75.61 75.29 75.88 75.24 75.68 75.32 77.00 78.17 78.36 78.29 77.90 77.13 77.17 77.10 77.86
74.84 75.34 75.60 75.11 75.38 76.29 76.68 77.01 76.38 76.52 76.45 76.72 77.53 74.74 76.39 76.77 77.73 77.55 75.33 76.36 76.88 74.50 74.81 77.74 77.82 76.99 76.51 75.32 74.98 74.82 74.78 74.95 75.66 75.58 76.05 76.22 76.86 77.15 77.79 79.12 78.94 78.28 77.90
74.40 74.88 75.40 75.13 76.39 75.52 75.07 74.81 74.97 74.45 75.36 76.20 77.32 78.40 79.61 78.71 77.73 78.65 76.50 76.14 76.25 75.49 76.69 77.54 76.63 76.93 74.73 76.39 74.59 74.06 74.21 73.69 73.72 73.78 75.33 75.22 76.16 76.71 78.25 78.00 79.22 77.93 77.42
73.44 74.45 75.03 75.35 76.03 76.06 75.60 75.95 75.70 77.47 78.02 78.64 75.01 76.77 78.72 78.94 78.22 77.47 78.64 77.06 76.88 75.53 76.53 76.51 77.14 74.71 73.82 75.18 73.22 72.96 70.08 71.57 71.92 74.37 74.03 75.38 76.25 76.58 75.73 77.00 77.86 78.95 78.31
74.06 74.41 74.66 75.22 75.75 76.44 76.73 75.46 75.99 77.06 76.92 75.14 75.72 75.61 77.10 78.46 78.15 78.51 78.64 78.68 79.11 78.35 74.91 77.32 76.76 76.97 72.50 74.97 78.33 72.82 69.46 67.97 71.26 73.04 73.73 72.93 76.90 76.10 76.45 76.38 76.28 77.95 79.35
73.62 75.09 75.93 76.53 76.40 76.80 77.46 77.36 77.87 75.04 73.20 75.19 73.19 77.20 75.01 77.10 77.03 77.28 78.58 78.65 79.28 78.03 79.48 77.77 76.41 78.29 78.07 72.45 72.75 73.13 76.84 75.67 69.66 69.02 72.16 72.96 74.97 75.68 78.08 74.79 76.06 77.56 79.78
73.67 74.23 75.78 77.30 78.18 78.70 78.09 78.82 76.12 76.92 75.51 75.55 74.83 74.81 77.98 78.45 78.29 77.33 77.50 77.94 78.53 77.50 79.60 79.88 79.79 79.69 76.82 74.83 72.85 72.19 74.66 72.31 74.98 70.23 67.79 69.79 72.27 73.13 73.24 73.73 74.02 75.15 75.59
73.85 74.14 74.75 77.20 78.36 78.74 78.38 76.79 77.40 75.06 75.32 74.10 75.34 76.55 75.15 75.41 74.95 76.90 77.70 78.19 78.99 78.92 78.97 78.54 80.25 80.12 79.38 78.29 76.63 76.30 72.90 71.20 70.69 69.70 68.58 70.44 69.34 70.79 71.70 72.29 73.19 74.22 74.93

GFSSE_sfc_wetblb_297.txt.gz
Wetbulb
72.09 74.81 76.62 76.98 77.55 77.51 77.53 77.57 77.61 77.77 77.63 77.72 78.05 77.92 77.64 77.53 77.84 78.08 77.54 77.54 77.34 77.63 77.25 77.22 77.33 77.51 77.10 77.21 77.08 76.80 77.18 77.06 76.90 76.66 76.73 76.59 76.42 76.87 76.61 76.87 75.87 74.52 75.97
73.77 75.38 77.24 77.62 78.12 77.28 77.32 77.69 77.33 77.63 77.43 77.36 77.57 77.57 77.69 77.64 77.65 77.27 77.14 77.30 77.35 77.44 77.19 76.77 77.13 77.23 77.17 76.97 77.01 77.13 76.94 76.87 76.90 76.59 76.83 76.64 76.14 76.53 76.93 76.66 76.31 75.30 76.22
73.72 75.03 76.13 77.81 78.24 77.19 77.23 77.36 77.31 77.43 77.44 77.77 77.85 77.60 77.52 77.77 77.63 77.72 77.63 77.60 77.47 77.36 77.23 76.76 76.59 76.64 76.74 77.00 76.78 76.65 76.32 76.52 76.89 77.14 76.17 74.06 74.29 76.18 76.40 76.07 75.82 75.43 75.58
73.69 74.37 75.62 78.20 78.19 77.31 77.35 77.47 77.85 77.44 77.22 77.46 77.61 77.49 77.45 77.39 77.70 77.66 77.58 77.50 77.36 77.42 77.14 77.00 76.94 76.83 75.81 75.32 75.39 76.10 76.02 76.04 76.20 76.56 74.75 72.13 72.55 75.64 75.87 75.48 75.68 75.91 75.69
73.60 74.76 75.80 78.31 78.05 77.36 77.20 77.23 77.23 77.33 76.74 76.12 76.15 76.82 77.09 77.24 77.62 77.71 77.58 77.56 77.14 76.51 75.93 75.63 75.65 75.98 75.67 75.72 75.36 74.82 74.60 74.82 75.35 75.93 74.44 70.61 71.88 75.20 75.06 75.59 75.44 75.56 75.24
74.07 75.50 77.58 78.38 77.52 77.37 77.29 77.65 77.68 77.27 77.03 77.53 75.87 75.79 76.39 76.34 77.15 77.44 77.25 76.89 76.34 75.74 75.15 75.12 75.40 75.21 74.93 75.32 75.34 75.64 76.05 75.85 76.10 72.30 72.34 74.01 72.54 75.83 75.92 75.98 75.49 74.77 74.32
73.92 75.16 76.63 78.66 78.50 77.73 78.10 77.45 77.77 77.85 77.48 77.47 76.59 75.82 75.95 75.98 76.28 76.66 76.56 76.15 75.79 75.26 74.76 75.57 76.10 76.24 75.48 75.57 75.73 76.08 76.24 75.93 73.44 72.53 73.18 73.24 73.38 75.84 75.63 75.02 75.03 74.68 74.50
73.73 75.23 75.12 78.08 78.51 78.21 77.29 77.76 77.65 77.36 77.57 77.29 76.78 75.71 75.95 75.81 76.00 75.92 75.71 75.60 75.49 75.07 75.32 75.68 75.93 75.82 75.40 75.18 75.29 75.99 76.00 75.85 73.31 71.14 72.31 73.63 75.84 76.05 74.64 75.46 75.13 74.70 75.27
74.32 74.35 74.77 75.68 76.82 77.72 77.45 77.58 77.39 77.10 76.89 76.67 76.20 76.36 76.25 76.23 76.15 76.01 76.39 76.36 75.57 75.68 75.96 75.74 75.06 76.04 75.68 75.87 76.06 76.24 76.00 75.10 70.64 69.54 72.36 73.01 76.41 75.94 74.62 74.19 74.45 75.27 74.50
73.52 73.76 73.73 74.77 75.11 74.97 74.68 77.38 77.16 77.46 77.25 77.31 76.76 76.43 76.15 76.40 76.65 76.43 77.61 77.56 76.78 76.40 76.10 75.53 74.88 75.85 77.03 77.16 77.36 77.14 76.78 76.13 70.83 68.53 69.90 71.70 76.68 75.70 74.26 74.22 74.24 74.46 74.48
72.32 72.42 73.64 73.76 74.42 73.98 74.23 75.69 77.71 77.14 77.28 77.40 77.38 77.57 77.59 74.23 74.43 74.50 76.40 77.18 77.41 77.41 77.24 77.30 77.54 77.52 77.36 77.77 78.06 78.78 78.63 72.53 69.54 68.75 70.38 75.85 76.27 75.48 75.05 74.82 74.39 74.28 74.20
71.17 71.90 72.22 72.72 73.29 73.73 72.93 72.99 73.51 74.31 74.38 74.40 74.72 74.78 75.43 74.82 74.16 75.73 76.38 79.54 79.72 79.71 80.20 79.31 79.43 79.07 78.58 74.96 73.85 75.77 74.91 72.43 66.19 67.10 69.99 76.33 76.49 75.92 75.24 75.49 75.72 74.81 74.67
71.41 72.17 69.24 71.25 73.12 73.73 70.70 72.34 71.66 72.69 73.39 73.97 73.94 73.65 73.78 74.84 74.32 74.55 73.68 75.05 74.93 77.24 72.09 74.30 77.64 77.79 72.37 72.77 72.65 67.36 70.65 71.21 68.24 66.51 70.71 75.89 76.05 76.45 75.59 75.83 75.46 74.73 74.29
70.36 70.32 68.77 70.56 72.69 72.16 71.05 72.81 71.39 72.32 71.24 72.39 73.29 68.78 73.44 73.69 73.55 73.20 73.57 73.76 74.77 71.37 66.18 67.48 74.23 71.39 68.69 72.93 72.03 68.21 71.97 70.60 71.34 68.29 68.96 75.63 75.24 76.13 76.33 76.23 75.95 75.41 75.15
70.28 70.41 69.49 71.73 71.54 72.22 73.25 72.64 71.69 70.73 71.58 69.64 71.14 64.91 73.14 73.04 73.65 74.74 73.24 72.48 73.71 73.37 71.36 68.91 72.74 70.06 69.58 72.07 71.63 70.33 69.91 70.27 71.05 72.50 69.96 75.41 75.96 76.03 76.65 76.24 76.25 75.95 75.78
70.10 70.13 71.33 73.30 73.18 73.08 72.64 70.53 69.08 67.24 67.63 69.10 74.11 68.38 72.81 67.16 74.17 74.11 70.95 71.35 72.40 72.18 72.52 73.60 69.80 68.47 67.90 70.14 72.94 70.47 69.32 69.53 69.52 73.19 72.00 72.01 76.46 75.71 76.54 77.25 77.43 77.03 76.67
70.79 71.25 70.38 72.18 73.24 73.07 72.48 72.39 71.38 71.54 71.57 71.19 74.22 72.15 65.57 67.50 73.80 75.21 72.81 71.47 72.81 72.95 72.63 73.30 70.29 69.67 70.29 70.13 70.06 70.33 69.91 68.86 71.13 71.66 71.51 73.61 74.73 76.25 76.26 76.73 77.20 77.66 77.90
72.53 71.65 71.46 73.59 72.64 73.29 72.47 73.28 74.36 72.09 73.04 72.92 73.97 74.41 73.53 73.60 73.19 73.18 72.76 74.07 73.46 72.24 71.96 72.13 72.07 69.93 70.14 69.14 69.60 71.47 68.63 71.81 70.32 70.37 69.76 73.34 72.51 71.49 73.60 76.33 76.92 77.10 77.57
72.85 71.54 70.16 70.92 71.79 72.50 73.51 73.84 73.93 72.62 72.23 72.59 73.42 73.76 73.75 73.56 73.51 71.22 71.68 72.90 72.24 70.95 71.59 74.32 73.25 72.45 70.60 70.83 71.04 70.52 67.38 69.78 71.63 73.38 71.88 70.25 69.47 70.28 69.07 70.92 73.72 76.41 77.50
71.99 72.04 71.15 71.62 71.62 72.63 73.57 74.38 73.31 72.82 71.99 74.71 72.95 73.26 73.64 72.31 72.84 72.03 71.64 71.62 71.60 70.62 72.96 72.91 72.76 72.55 72.31 72.20 73.54 72.92 70.57 71.15 70.70 69.51 70.64 71.35 71.32 71.33 69.48 67.43 69.34 74.46 77.43
72.60 72.41 71.11 72.63 71.99 73.62 72.32 71.34 71.29 73.14 72.63 71.58 73.07 73.64 73.22 73.37 73.45 73.38 72.89 73.64 72.90 72.88 71.18 71.37 71.21 70.79 70.42 71.03 69.06 69.92 70.61 70.33 69.07 69.86 69.48 69.40 70.43 71.97 70.76 69.42 72.28 73.85 74.32
71.69 71.73 70.62 73.03 72.46 72.74 72.66 72.18 72.65 74.63 72.20 73.33 72.27 71.62 72.61 72.20 73.09 74.57 74.22 72.93 74.31 73.17 72.42 72.50 71.38 70.01 69.96 70.84 68.76 68.13 64.62 66.62 68.35 70.34 69.33 70.34 69.14 71.66 71.68 71.87 74.54 74.83 74.81
70.49 71.32 72.50 72.60 72.45 72.07 71.90 73.35 73.36 73.61 73.22 72.15 72.22 72.45 73.29 74.66 73.28 72.64 73.46 74.70 75.68 74.33 72.53 72.75 73.98 72.47 70.48 70.42 70.03 68.61 63.97 62.70 65.33 67.99 67.85 69.85 68.87 69.49 70.22 69.35 71.18 74.36 74.13
71.47 72.42 72.98 73.28 72.68 72.30 73.22 72.36 71.93 70.84 69.45 70.93 70.85 71.64 71.81 72.98 73.24 71.39 73.55 72.24 72.07 74.32 73.02 73.39 74.51 73.86 72.50 70.57 71.77 71.78 69.69 68.44 65.21 63.48 67.59 68.94 69.44 69.01 69.33 70.17 71.76 72.10 73.82
71.93 72.15 72.97 73.40 72.95 72.26 73.31 73.30 72.65 71.68 71.60 71.13 69.63 68.10 69.12 69.75 72.06 74.68 72.98 71.25 70.09 73.01 73.29 73.26 73.42 73.23 72.44 71.86 71.17 70.38 71.08 70.62 69.16 66.67 64.79 66.15 67.58 68.58 68.59 68.19 67.50 66.91 70.13
71.53 72.02 72.92 72.43 71.71 72.79 73.63 73.36 72.12 71.15 71.67 70.33 70.10 69.07 69.39 70.66 71.35 73.14 72.59 69.76 70.19 72.59 72.19 72.65 72.68 72.49 73.16 73.23 73.27 72.72 71.17 69.05 68.68 67.09 65.01 66.07 65.88 68.10 68.26 68.45 68.16 68.48 69.20